Regional Weather Roundup
Issued by NWS

Home | Current Version | Previous Version | Text Only | Print | Product List | Glossary On
Versions: 1 2 3 4 5 6 7 8 9 10 11 12 13 14 15 16 17 18 19 20 21 22 23 24 25 26 27 28 29 30 31 32 33 34 35 36 37 38 39 40 41 42 43 44 45 46 47 48 49 50
000
ASUS45 KBOU 280407
RWRCO

WEATHER ROUNDUP FOR COLORADO
NATIONAL WEATHER SERVICE DENVER/BOULDER CO
1000 PM MDT SAT MAY 27 2017

NOTE: "FAIR" INDICATES FEW OR NO CLOUDS BELOW 12000 FEET WITH NO
SIGNIFICANT WEATHER AND/OR OBSTRUCTIONS TO VISIBILITY.

COZ001>005-013-030-031-280500-
...NORTHWEST COLORADO...

CITY           SKY/WX    TMP DP  RH WIND       PRES   REMARKS
CRAIG          FAIR      46  37  71 E3        30.29R
HAYDEN         FAIR      45  34  65 E8        30.31R
MEEKER         FAIR      47  34  60 CALM      30.29R
RABBIT EARS PA NOT AVBL
STEAMBOAT SPGS NOT AVBL
WALDEN         NOT AVBL
$$

COZ006>008-011-280500-
...WEST CENTRAL VALLEYS...

CITY           SKY/WX    TMP DP  RH WIND       PRES   REMARKS
GRAND JUNCTION FAIR      61  24  24 N8        30.19R
MONTROSE       FAIR      56  29  35 CALM      30.25R
EAGLE          FAIR      43  36  76 E6        30.34R
RIFLE          FAIR      51  29  42 S5        30.26R
DELTA          FAIR      60  25  25 NE8       30.22R
NUCLA          FAIR      59  25  27 NE9       30.25R
$$

COZ017>023-064>068-280500-
...SOUTHWEST COLORADO...

CITY           SKY/WX    TMP DP  RH WIND       PRES   REMARKS
DURANGO        FAIR      53  14  21 N7        30.18R
CORTEZ         FAIR      52  24  33 E7        30.18R
PAGOSA SPRINGS FAIR      52  19  27 NW7       30.24R
TELLURIDE      MOCLDY    46  27  48 SE3       30.37R
WOLF CREEK PAS NOT AVBL
$$

COZ009-010-012-014-032>034-037-058>063-280500-
...CENTRAL COLORADO...

CITY           SKY/WX    TMP DP  RH WIND       PRES   REMARKS
ASPEN          MOCLDY    41  34  76 S9        30.34R
BUENA VISTA    FAIR      43  27  53 NW14      30.33R
COPPER MTN     NOT AVBL
BERTHOUD PASS  NOT AVBL
COTTONWOOD PAS NOT AVBL
GUNNISON       FAIR      44  28  53 N7        30.32R
KREMMLING      NOT AVBL
LEADVILLE      FAIR      30  27  88 N6        30.39R WCI  24
SALIDA         CLOUDY    48  31  50 N8G18     30.39R
SUNLIGHT       NOT AVBL
WILKERSON PASS NOT AVBL
$$

COZ069>075-280500-
...SAN LUIS VALLEY/SANGRE DE CRISTO MOUNTAINS...

CITY           SKY/WX    TMP DP  RH WIND       PRES   REMARKS
ALAMOSA        MOCLDY    52  27  38 N18G29    30.27R
DEL NORTE      NOT AVBL
LA VETA PASS   NOT AVBL
SAGUACHE       NOT AVBL
$$

COZ035-036-038>040-280500-
...NORTHERN COLORADO FRONT RANGE...

CITY           SKY/WX    TMP DP  RH WIND       PRES   REMARKS
DENVER INTL AP FAIR      48  41  76 SW6       30.24R
DMNS CITY PARK   N/A     47  43  87 E8        30.26R
AURORA         PTCLDY    46  41  82 SW6       30.26R
FRONT RANGE AP NOT AVBL
ERIE MUNI ARPT NOT AVBL
BOULDER MUN AP NOT AVBL
CENTENNIAL     FAIR      44  40  85 SW7       30.27R
BROOMFIELD     PTCLDY    48  43  81 CALM      30.05F
FORT COLLINS   FAIR      47  43  86 SW6       30.24R
LONGMONT       NOT AVBL
$$

COZ041-046-047-076>085-087-088-280500-
...PIKES PEAK/PALMER DIVIDE AND SOUTHERN FOOTHILLS...

CITY           SKY/WX    TMP DP  RH WIND       PRES   REMARKS
COLO. SPRINGS  FAIR      47  40  76 N10       30.29R
A. F. ACADEMY  FAIR      42  38  86 N5        30.30R
SCHRIEVER AFB  MOCLDY    47  39  73 NW12G22   30.29R
CHEYENNE MTN   FAIR      46  34  62 NW6       30.25R
ELLICOTT       FAIR     N/A N/A N/A N3        30.28R
FALCON         FAIR      41  38  91 W3        30.32R
FORT CARSON    MOCLDY    49  39  68 W6        30.28R
LIMON          FAIR      46  43  89 NW9       30.25R
MONUMENT HILL  NOT AVBL
CANON CITY     NOT AVBL
WALSENBURG     CLOUDY    48  45  87 CALM      30.32R
TRINIDAD       LGT RAIN  48  41  76 N8G18     30.31R
$$

COZ042>045-048>051-090-091-280500-
...NORTHEAST COLORADO...

CITY           SKY/WX    TMP DP  RH WIND       PRES   REMARKS
GREELEY ARPT   FAIR      48  45  89 CALM      30.23R
AKRON          FAIR      48  38  68 NW5       30.19R
BURLINGTON     FAIR      51  48  89 NW8       30.16R
WRAY           FAIR      46  43  87 NW9       30.15R
YUMA           NOT AVBL
STERLING       NOT AVBL
HOLYOKE        NOT AVBL
FORT MORGAN    FAIR      47  40  75 NW12      30.20R
$$

COZ086-089-092>099-280500-
...SOUTHEAST COLORADO...

CITY           SKY/WX    TMP DP  RH WIND       PRES   REMARKS
PUEBLO         MOCLDY    52  49  89 W7        30.24R
LA JUNTA       CLOUDY    52  49  89 W10       30.24R
LAMAR          CLOUDY    53  49  86 W8        30.19R
SPRINGFIELD      N/A     49  47  93 NW16      30.18R
$$



USA.gov is the U.S. government's official web portal to all federal, state and local government web resources and services.